TimeCST,TemperatureF,Dew PointF,Humidity,Sea Level PressureIn,VisibilityMPH,Wind Direction,Wind SpeedMPH,Gust SpeedMPH,PrecipitationIn,Events,Conditions,WindDirDegrees,DateUTC
12:52 AM,30.0,26.1,85,30.11,10.0,Calm,Calm,-,N/A,,Mostly Cloudy,0,2012-11-06 06:52:00
1:52 AM,27.0,24.1,89,30.11,9.0,Calm,Calm,-,N/A,,Mostly Cloudy,0,2012-11-06 07:52:00
3:52 AM,30.0,26.1,85,30.07,9.0,Calm,Calm,-,N/A,,Overcast,0,2012-11-06 09:52:00
4:52 AM,28.9,26.1,89,30.07,6.0,Calm,Calm,-,N/A,,Clear,0,2012-11-06 10:52:00
5:52 AM,28.0,25.0,88,30.04,8.0,SSE,3.5,-,N/A,,Mostly Cloudy,160,2012-11-06 11:52:00
6:52 AM,28.0,26.1,92,30.03,6.0,SSE,3.5,-,N/A,,Clear,150,2012-11-06 12:52:00
7:52 AM,33.1,30.0,89,30.04,5.0,SSE,3.5,-,N/A,,Scattered Clouds,160,2012-11-06 13:52:00
8:52 AM,35.1,30.9,85,30.02,5.0,SSE,3.5,-,N/A,,Overcast,150,2012-11-06 14:52:00
9:52 AM,37.0,30.0,76,30.01,5.0,South,8.1,-,N/A,,Haze,170,2012-11-06 15:52:00
10:52 AM,37.9,30.0,73,29.99,6.0,South,8.1,-,N/A,,Haze,170,2012-11-06 16:52:00
11:52 AM,39.0,32.0,76,29.97,6.0,South,6.9,-,0.00,Rain,Light Rain,180,2012-11-06 17:52:00
12:40 PM,37.4,33.8,87,29.94,4.0,South,8.1,-,0.00,Rain,Light Rain,190,2012-11-06 18:40:00
12:52 PM,37.9,34.0,86,29.95,3.0,South,5.8,-,0.00,Rain,Light Rain,190,2012-11-06 18:52:00
1:04 PM,37.4,35.6,93,29.93,4.0,SSW,6.9,-,0.00,Rain,Light Rain,200,2012-11-06 19:04:00
1:14 PM,37.4,35.6,93,29.92,3.0,South,8.1,-,0.00,Rain,Light Rain,180,2012-11-06 19:14:00
1:32 PM,37.4,35.6,93,29.91,3.0,South,9.2,-,0.00,Rain,Light Rain,180,2012-11-06 19:32:00
1:52 PM,37.9,35.1,89,29.93,3.0,South,8.1,-,0.01,Rain,Light Rain,190,2012-11-06 19:52:00
2:52 PM,37.9,35.1,89,29.91,4.0,South,11.5,-,0.00,Rain,Light Rain,170,2012-11-06 20:52:00
3:34 PM,37.4,35.6,93,29.89,2.5,South,8.1,-,0.01,Rain,Light Rain,170,2012-11-06 21:34:00
3:52 PM,37.0,35.1,93,29.91,2.5,South,8.1,-,0.01,Rain,Light Rain,170,2012-11-06 21:52:00
3:59 PM,37.4,35.6,93,29.89,2.5,SSE,9.2,-,0.00,Rain,Light Rain,160,2012-11-06 21:59:00
4:29 PM,37.4,35.6,93,29.89,2.5,South,6.9,-,0.00,Rain,Light Rain,170,2012-11-06 22:29:00
4:45 PM,37.4,35.6,93,29.89,4.0,South,5.8,-,0.00,,Overcast,170,2012-11-06 22:45:00
4:52 PM,37.9,36.0,93,29.91,3.0,South,5.8,-,0.00,Rain,Light Rain,170,2012-11-06 22:52:00
5:52 PM,37.9,36.0,93,29.92,4.0,South,8.1,-,0.00,Rain,Light Rain,170,2012-11-06 23:52:00
6:42 PM,37.4,37.4,100,29.89,3.0,SSE,5.8,-,0.01,Rain,Light Rain,150,2012-11-07 00:42:00
6:52 PM,37.9,37.0,97,29.92,3.0,SSE,5.8,-,0.01,Rain,Light Rain,150,2012-11-07 00:52:00
7:05 PM,37.4,37.4,100,29.89,3.0,SSE,8.1,-,0.00,Rain,Light Rain,150,2012-11-07 01:05:00
7:52 PM,37.9,37.0,97,29.91,2.5,SSE,6.9,-,0.02,Rain,Light Rain,150,2012-11-07 01:52:00
8:01 PM,37.4,37.4,100,29.88,3.0,SSE,6.9,-,0.00,Rain,Light Rain,150,2012-11-07 02:01:00
8:09 PM,37.4,37.4,100,29.88,2.5,SSE,8.1,-,0.00,Rain,Light Rain,150,2012-11-07 02:09:00
8:52 PM,39.0,37.0,93,29.90,2.5,SSE,6.9,-,0.01,Rain,Light Rain,150,2012-11-07 02:52:00
9:52 PM,39.0,37.9,96,29.90,2.5,SSE,5.8,-,0.01,Rain,Light Rain,150,2012-11-07 03:52:00
10:52 PM,39.0,37.9,96,29.89,2.5,South,4.6,-,0.01,Rain,Light Rain,170,2012-11-07 04:52:00
11:52 PM,39.0,37.9,96,29.89,2.5,SE,5.8,-,0.00,Rain,Light Rain,140,2012-11-07 05:52:00